Regional Weather Roundup
Issued by NWS San Angelo, TX

Home | Current Version | Previous Version | Graphics & Text | Print | Product List | Glossary Off
Versions: 1 2 3 4 5 6 7 8 9 10 11 12 13 14 15 16 17 18 19 20 21 22 23 24 25 26 27 28 29 30 31 32 33 34 35 36 37 38 39 40 41 42 43 44 45 46 47 48 49 50

000
ASUS44 KSJT 022110
RWRSJT
WEST CENTRAL TEXAS REGIONAL WEATHER ROUNDUP
NATIONAL WEATHER SERVICE SAN ANGELO TX
400 PM CDT TUE SEP 02 2014

NOTE: "FAIR" INDICATES FEW OR NO CLOUDS BELOW 12,000 FEET WITH NO
SIGNIFICANT WEATHER AND/OR OBSTRUCTIONS TO VISIBILITY.

TXZ049-054-064>066-071>073-076>078-098-099-113-114-127-128-139-140-
154-155-168>170-022200
...LOCATIONS ACROSS WEST CENTRAL TEXAS...

CITY           SKY/WX    TMP DP  RH WIND       PRES   REMARKS
SAN ANGELO     SUNNY     95  63  34 S13G21    29.91F
ABILENE        MOSUNNY   97  64  33 S14G26    29.92F
DYESS AFB      MOSUNNY   95  65  36 S15G21    29.90F
JUNCTION       PTSUNNY   94  64  37 S9        29.93F HAZE
SWEETWATER     SUNNY     94  59  30 SE16G24   29.97F
BROWNWOOD      MOSUNNY   95  63  34 SE13G20   29.92F
COLEMAN        PTCLDY    95  61  32 SE12      29.94F
SONORA         MOSUNNY   91  64  40 SE10      29.98F
OZONA          FAIR      95  61  31 S17G24    29.96F
BRADY          MOSUNNY   93  64  38 SE6       29.94F
$$

TEXAS PANHANDLE/OKLAHOMA PANHANDLE

CITY           SKY/WX    TMP DP  RH WIND       PRES   REMARKS
AMARILLO       SUNNY     93  61  34 SE13      29.98F
BORGER         SUNNY     93  61  34 E10       29.95F
CANADIAN       SUNNY     93  65  39 SE7G16    29.91F
DALHART        MOSUNNY   82  64  54 E14       30.04F
DUMAS          CLEAR     87  65  47 E9        30.01F
GUYMON         NOT AVBL
HEREFORD       NOT AVBL
PAMPA          CLEAR     93  57  29 S12G18    29.97F
PERRYTON       PTSUNNY   86  65  49 E13G18    29.97F
$$

SOUTHERN PANHANDLE/SOUTH PLAINS/ROLLING PLAINS

CITY           SKY/WX    TMP DP  RH WIND       PRES   REMARKS
LUBBOCK        MOSUNNY   98  62  30 SE9       29.95F
SNYDER         SUNNY     97  61  30 SE14G22   29.93F
CHILDRESS      SUNNY     96  66  37 S15G22    29.90F
SEMINOLE       CLEAR    103  45  14 S10G18    29.93F
$$

PERMIAN BASIN

CITY           SKY/WX    TMP DP  RH WIND       PRES   REMARKS
MIDLAND        SUNNY    100  58  24 SE15G22   29.90F
ODESSA         SUNNY    100  56  23 S15G22    29.92F
WINK           MOSUNNY  104  47  14 SE10      29.85F
$$

FAR WEST/SOUTHWEST MOUNTAINS/TRANS PECOS

CITY           SKY/WX    TMP DP  RH WIND       PRES   REMARKS
ALPINE         PTCLDY    95  49  20 S12G21    30.07F
DRYDEN           N/A    100  62  28 SE15G24   29.88F
EL PASO        MOSUNNY   98  32  10 VRB7      29.95F
FORT STOCKTON  MOSUNNY   95  59  30 SE14      29.91S
GUADALUPE PASS SUNNY     96  35  11 VRB6G21   30.10F
MARFA          MOSUNNY   91  52  25 SE17G25   30.07F
PECOS          CLEAR    105  44  12 E8G17     29.84F
$$

DALLAS/FORT WORTH METROPLEX

CITY           SKY/WX    TMP DP  RH WIND       PRES   REMARKS
DFW AIRPORT    PTSUNNY   94  68  42 S12G21    29.91F
FTW MEACHAM    MOSUNNY   98  67  36 SE16G24   29.90F
DAL-EXECUTIVE  MOSUNNY   98  66  34 SE15G22   29.91F
GRAND PRAIRIE  SUNNY     95  66  38 E7        29.92F
ADDISON        NOT AVBL
MESQUITE       MOCLDY    97  64  34 E12G17    29.93F
LANCASTER      MOCLDY    96  66  37 SE9       29.93F
$$

NORTH CENTRAL TEXAS

CITY           SKY/WX    TMP DP  RH WIND       PRES   REMARKS
SHRMAN/DENISON CLEAR     90  68  47 E17       29.94F
GAINESVILLE    SUNNY     92  71  49 SE16      29.93F
BRIDGEPORT     PTCLDY    95  62  33 SE12      29.92F
DENTON         MOSUNNY   95  67  39 S13G22    29.91F
WAXAHACHIE     CLEAR     96  64  34 SE10G17   29.93F
GRANBURY       CLEAR     98  64  32 S13G18    29.91F
$$

WESTERN NORTH TEXAS

CITY           SKY/WX    TMP DP  RH WIND       PRES   REMARKS
WICHITA FALLS  PTSUNNY   97  66  36 SE15G25   29.87F
VERNON         CLEAR    100  61  27 S16G25    29.88F
BRECKENRIDGE   PTCLDY    98  63  31 SE12G18   29.90F HAZE
COMANCHE         N/A     93  59  32 S9G20     29.94F
$$

CENTRAL AND SOUTH CENTRAL TEXAS

CITY           SKY/WX    TMP DP  RH WIND       PRES   REMARKS
AUSTIN/BERGSTM PTSUNNY   97  70  41 S17G23    29.89F
WACO           MOSUNNY   97  67  37 SE8       29.91F
HILLSBORO      PTCLDY    98  64  32 S10G18    29.92F
TEMPLE         MOSUNNY   97  66  36 S15       29.91F
KILLEEN-GRAY   PTSUNNY   99  68  36 SE12      29.91F
FORT HOOD      MOSUNNY   99  67  35 SE15      29.91F
GEORGETOWN     MOSUNNY   97  68  38 SE9       29.90F
LAGO VISTA     FAIR      98  64  32 S7        29.93F
SAN MARCOS     MOSUNNY   97  70  41 SE17G28   29.91F
NEW BRAUNFELS  LGT RAIN  91  70  49 S13       29.89F
RANDOLPH AFB   MOSUNNY   95  69  42 SE13G20   29.90F
SAN ANTONIO    MOSUNNY   97  68  38 SE15      29.89F
STINSON        MOSUNNY   95  69  42 SE14G23   29.86F
PLEASANTON     NOT AVBL
LA GRANGE      MOSUNNY   97  71  42 SE13G23   29.89F
GIDDINGS       MOCLDY    93  69  45 SE14G20   29.94F
$$

EAST TEXAS

CITY           SKY/WX    TMP DP  RH WIND       PRES   REMARKS
PARIS          SUNNY     90  63  40 E14G21    29.96F
CLARKSVILLE    NOT AVBL
TYLER          MOSUNNY   90  72  55 SE15      29.96F
LONGVIEW       CLOUDY    75  71  87 S9        29.98F
PALESTINE      RAIN      76  73  90 SE3       29.98S
NACOGDOCHES    CLOUDY    75  73  94 E7        30.02R
$$

TEXAS HILL COUNTRY AND EDWARDS PLATEAU

CITY           SKY/WX    TMP DP  RH WIND       PRES   REMARKS
LLANO          PTCLDY    99  64  32 SE14G20   29.92F
HORSESHOE BAY  MOCLDY    97  64  34 SE9G18    29.91F
KERRVILLE      MOSUNNY   94  68  41 SE8       29.94F
FREDERICKSBRG  MOSUNNY   92  63  37 S8        29.94F
ROCKSPRINGS    PTCLDY    90  64  43 SE12G18   29.99F
HONDO          MOSUNNY   97  66  36 SE13G22   29.90F
UVALDE         PTCLDY    96  66  37 E10       29.88F
DEL RIO        MOSUNNY   97  67  37 E10       29.84F
$$

SOUTHEAST TEXAS

CITY           SKY/WX    TMP DP  RH WIND       PRES   REMARKS
COLLEGE STN    MOSUNNY   95  71  45 SE17G24   29.92F
CALDWELL       RAIN      82  75  78 SW3       29.95F
CROCKETT       CLOUDY    82  79  89 NE6       30.00F
BRENHAM        MOSUNNY   97  68  39 S15G23    29.92F
HUNTSVILLE     CLOUDY    82  76  81 VRB3      29.96F
CONROE         MOSUNNY   95  70  44 SE14      29.95F
HOUSTON BUSH   PTSUNNY   90  75  62 SE13G20   29.94F
HOUSTON HOBBY  PTSUNNY   91  74  57 S13       29.94F
PERLAND        PTSUNNY   91  73  55 SE14      29.96F
WHARTON        PTCLDY    93  71  48 SE18      29.93F
$$

THE UPPER TEXAS COAST

CITY           SKY/WX    TMP DP  RH WIND       PRES   REMARKS
ORANGE         PTCLDY    90  74  60 S10       29.98F
PORT ARTHUR    PTSUNNY   91  76  61 SE14      29.96F
GALVESTON      SUNNY     89  78  70 SE13      29.96F
ANGLETON       MOSUNNY   87  77  72 SE10      29.94F
BAY CITY       MOCLDY    91  76  61 SE14G23   29.93F
$$

TEXAS COASTAL BEND, RIO GRANDE PLAINS DEEP SOUTH TEXAS

CITY           SKY/WX    TMP DP  RH WIND       PRES   REMARKS
VICTORIA       SUNNY     95  74  50 E15G28    29.91F
BEEVILLE       FAIR      94  72  48 SE18      29.89F
ROCKPORT       PTSUNNY   89  77  67 SE21      29.90F
PORT ARANSAS   PTCLDY    89  77  67 SE17G23   29.89F
PORT LAVACA    PTCLDY    87  76  69 SE18      29.91F
CORPUS CHRISTI PTSUNNY   89  75  63 E18G26    29.88F
KINGSVILLE NAS PTSUNNY   93  75  55 SE17G29   29.87F
COTULLA        PTSUNNY  100  65  31 E10       29.84F
LAREDO         MOSUNNY   98  69  38 E13       29.85F
BROWNSVILLE    PTSUNNY   82  79  90 SE7       29.84F
PORT ISABEL    PTSUNNY   91  75  59 SE22      29.84F
HEBBRONVILLE   MOCLDY    95  68  40 E15G22    29.86S
MCALLEN        PTSUNNY   93  74  53 E21G28    29.81F
WESLACO        NOT AVBL
FALFURRIAS     MOCLDY    92  69  46 E15G24    29.85S
EDINBURG       PTCLDY    96  71  43 E18G30    29.82F
$$


USA.gov is the U.S. government's official web portal to all federal, state and local government web resources and services.